Location: Misciano
(43.5000°N, 11.9500°E)
Time: 17:53:24
(UTC+00:00)

GP-B - Pass Details

Date: 13 August 2020
Orbit: 631 x 635 km, 89.8° (Epoch: 25 September)

Event Time Altitude Azimuth Distance (km) Brightness Sun altitude
Rises 19:55:37 0° 3° (N) 2,943 7.1 -16.2°
Reaches altitude 10° 19:57:52 10° 5° (N) 2,030 6.2 -16.5°
Maximum altitude 20:02:19 75° 91° (E) 662 3.0 -17.1°
Enters shadow 20:04:53 25° 173° (S) 1,285 4.3 -17.4°
